Regional Weather Roundup
Issued by NWS

Home | Current Version | Previous Version | Text Only | Print | Product List | Glossary On
Versions: 1 2 3 4 5 6 7 8 9 10 11 12 13 14 15 16 17 18 19 20 21 22 23 24 25 26 27 28 29 30 31 32 33 34 35 36 37 38 39 40 41 42 43 44 45 46 47 48 49 50
000
ASUS44 KOUN 311410
RWROK

WEATHER ROUNDUP FOR OKLAHOMA
NATIONAL WEATHER SERVICE NORMAN OK
900 AM CDT TUE MAY 31 2016

NOTE: "FAIR" INDICATES FEW OR NO CLOUDS BELOW 12,000 FEET WITH NO
      SIGNIFICANT WEATHER AND/OR OBSTRUCTIONS TO VISIBILITY.

OKZ001>007-009>012-014-015-017-311500-
NORTHWEST OKLAHOMA AND THE PANHANDLE

CITY           SKY/WX    TMP DP  RH WIND       PRES   REMARKS
GAGE           MOSUNNY   65  57  75 NE12      29.99R
GUYMON         LGT RAIN  61  55  81 N3        29.98F
ENID/WOODRING  PTSUNNY   72  68  88 MISG      29.91F
$$

OKZ016-021>023-033>039-044-045-311500-
SOUTHWEST OKLAHOMA

CITY           SKY/WX    TMP DP  RH WIND       PRES   REMARKS
LAWTON/REGL    CLOUDY    73  67  81 N15       29.93R
LAWTON/FT SILL CLOUDY    72  66  83 NE12G23   29.92S
FREDERICK      CLOUDY    72  69  90 N16G23    29.90R
CLINTON        MOSUNNY   68  57  68 NE16      29.98F
HOBART         LGT RAIN  68  57  68 NE16      29.98R
$$

OKZ018>020-024>031-311500-
CENTRAL OKLAHOMA

CITY           SKY/WX    TMP DP  RH WIND       PRES   REMARKS
OKLAHOMA CITY  PTSUNNY   69  62  78 N9        29.95F
OKC/WILEY POST MOSUNNY   67  61  81 NE8       29.95S
STILLWATER     LGT RAIN  64  62  93 NE22G32   29.91F
GUTHRIE        CLOUDY    66  64  93 MISG      29.94F
$$

OKZ008-013-054>072-311500-
NORTHEAST OKLAHOMA

CITY           SKY/WX    TMP DP  RH WIND       PRES   REMARKS
TULSA          CLOUDY    69  68  96 CALM      29.95R FOG
TULSA/JONES    CLOUDY    69  67  93 CALM      29.96R FOG
PONCA CITY     LGT RAIN  63  60  90 N9        29.98S
BARTLESVILLE   CLOUDY    65  64  97 S5        29.97R FOG
MUSKOGEE       CLOUDY    69  66  90 SE8       29.96R
$$

OKZ032-040>043-046>053-073>077-311500-
SOUTH CENTRAL/SOUTHEAST OKLAHOMA

CITY           SKY/WX    TMP DP  RH WIND       PRES   REMARKS
ARDMORE/DWNTWN CLOUDY    73  68  83 S6        29.91R
MCALESTER      CLOUDY    71  69  93 VRB3      29.94F FOG
$$





USA.gov is the U.S. government's official web portal to all federal, state and local government web resources and services.